Showing default

QUETZSAT 1, 37826

Orbit data source: Space-Track

QUETZSAT 1, 37826 is a payload satellite owned by SES Sat. Leasing (MX) in GEO that was launched on Thu, 29 Sep 2011 UTC via a PROTON-M/BRIZ-M launch vehicle from the Tyuratam Missile And Space Complex (TTMTR). Payload-class satellites include a variety of spacecraft equipped with specific instruments for various scientific and technological missions. These include communications satellites like Starlink; space stations such as the ISS; scientific satellites like the Hubble; Earth observation satellites from companies like Planet Labs, Umbra, and HawkEye 360; GPS; miniature CubeSats for education and research; and military/defense satellites.

Loading next visibility...
Identifier
37826, 2011-054A
Orbit
GEO
Country
Flag of MXMX / MEX
Related business
Manufacturer
SS/Loral
Mission
Operational Commercial Communications
Bus & Motor
SSL-1300, R-4D-15-300?
Mass
5,514 kg wet, 2,472 kg dry
Launch date (UTC)
2011-09-29 (14 years ago)
Launch vehicle
PROTON-M/BRIZ-M
Launch site
Tyuratam Missile And Space Complex (TTMTR)
Object type
Payload
Rocket body
Debris
Shape & HBR
Box + 2 Pan, 13.3 m
Radar Cross Section
28.987 m², Large (>1 m²)

Expand to show TLE details & history
Last TLE update: 1 day ago

TLE from 1 day ago
0 QUETZSAT 1
1 37826U 11054A   25260.18724683  .00000000  00000-0  00000-0 0  9991
2 37826   0.0169 135.6338 0002521  45.1220 166.0343  1.00267912 47133
Epoch: 2025-09-17T04:29Z
TLE epoch observation values (Epoch: 2025-09-17T04:29:38.126Z)
Latitude
-0.01515°
Longitude
-76.97706°
Altitude
35,797.536 km
Speed
3.074 km/s
True Right ascension
23h 07m 11s
True Declination
0° 00' 54"
Sunlit
Object was in partial shadow at epoch
Visualization orbit readout
Latitude
Unknown
Longitude
Unknown
Altitude
Unknown
Speed
Unknown
Apparent Right ascension
Unknown
Apparent Declination
Unknown
Sunlit
N/A
Visualization observer readout
Local Sidereal Time
20:51:58
Azimuth
Unknown
Elevation
Unknown
Doppler factor
Unknown
Orbital elements
Apogee altitude
35,799.381 km
Perigee altitude
35,778.121 km
Semi-major axis
42,166.888 km
Eccentricity
0.00025
Inclination
0.0169°
RAAN
135.6338°
Arg. of periapsis
45.122°
True anomaly
166.04127°
Mean anomaly
166.0343°
Eccentric anomaly
166.03779°
Mean motion
0.25066 °/min
Orbital period
1,436.21 mins
BSTAR
0
Loading maneuver chart data...
Computing Atmospheric mass density...
Loading historical data...
Loading historical data...
Loading historical data...
Loading historical data...
Loading historical data...
Loading historical data...
Loading historical data...
Other satellites on launch #54 in the year 2011 (2011-09-29 UTC)

Documentation

Showing up to 5 results
|